Date String (YYYY-MM-DD hh:mm:ss) UTC,Instrument flags,absolute air pressure of the measurement (hPa),sample flow rate (lpm),inlet stack bypass flow (lpm),air temperature of the measurement (°C),ambient temperature measured by the external sensor (°C),aerosol sample conditioner tube jacket temperature (°C),OPC LED temperature (°C),internal box temperature (°C),relative humidity of the measurement (%),span deviation,mass concentration of particles derived from Lorenz-Mie calculation of OPC scattering (μg/m³),mass concentration of particles derived from Lorenz-Mie calculation of OPC scattering (μg/m³),mass concentration of particles derived from Lorenz-Mie calculation of OPC scattering (μg/m³)
DateTimeUTC,F1_M11,P_M11,Q1_M11,Q2_M11,T1_M11,T2_M11,T3_M11,T4_M11,T5_M11,U1_M11,ZSPAN_M11,X0_M11,X2_M11,X1_M11
2024-02-02 04:00:00,SystemResetWarning,0822.9,5.00,000.00,025.9,025.1,000.0,034.3,027.6,09.4,0000.0,0007.91,0003.15,0002.31
2024-02-02 04:01:00,SystemResetWarning,0823.0,5.00,000.00,025.9,025.1,000.0,034.3,027.6,09.4,0000.0,0007.51,0003.16,0002.34
2024-02-02 04:02:00,SystemResetWarning,0822.8,5.01,000.00,025.9,025.1,000.0,034.3,027.6,09.4,0000.0,0007.22,0003.20,0002.38
2024-02-02 04:03:00,SystemResetWarning,0823.0,5.00,000.00,025.9,025.1,000.0,034.3,027.6,09.4,0000.0,0007.22,0003.24,0002.41
2024-02-02 04:04:00,SystemResetWarning,0823.0,5.00,000.00,025.9,025.1,000.0,034.3,027.6,09.4,0000.0,0007.99,0003.26,0002.44
2024-02-02 04:05:00,SystemResetWarning,0822.9,5.00,000.00,025.9,025.1,000.0,034.2,027.5,09.5,0000.0,0008.39,0003.26,0002.44
2024-02-02 04:06:00,SystemResetWarning,0823.1,5.00,000.00,025.9,025.1,000.0,034.2,027.5,09.6,0000.0,0008.94,0003.29,0002.46
2024-02-02 04:07:00,SystemResetWarning,0823.3,5.00,000.00,025.9,025.1,000.0,034.2,027.5,09.6,0000.0,0009.18,0003.33,0002.50
2024-02-02 04:08:00,SystemResetWarning,0823.2,5.00,000.00,025.9,025.1,000.0,034.2,027.5,09.7,0000.0,0009.27,0003.33,0002.51
2024-02-02 04:09:00,SystemResetWarning,0823.3,5.00,000.00,025.9,025.0,000.0,034.2,027.5,09.8,0000.0,0009.95,0003.37,0002.53
2024-02-02 04:10:00,SystemResetWarning,0823.2,5.00,000.00,025.9,025.0,000.0,034.2,027.5,09.8,0000.0,0010.07,0003.38,0002.52
2024-02-02 04:11:00,SystemResetWarning,0823.0,5.00,000.00,025.8,025.0,000.0,034.2,027.5,09.8,0000.0,0009.73,0003.33,0002.51
2024-02-02 04:12:00,SystemResetWarning,0823.1,5.00,000.00,025.8,025.0,000.0,034.2,027.4,09.9,0000.0,0009.69,0003.32,0002.52
2024-02-02 04:13:00,SystemResetWarning,0823.1,5.00,000.00,025.8,025.0,000.0,034.2,027.4,10.0,0000.0,0009.76,0003.33,0002.52
2024-02-02 04:14:00,SystemResetWarning,0822.8,5.00,000.00,025.8,025.0,000.0,034.2,027.4,10.0,0000.0,0009.81,0003.33,0002.52
2024-02-02 04:15:00,SystemResetWarning,0822.8,5.00,000.00,025.8,025.0,000.0,034.2,027.4,09.9,0000.0,0009.18,0003.32,0002.51
2024-02-02 04:16:00,SystemResetWarning,0822.7,5.00,000.00,025.8,025.0,000.0,034.2,027.4,09.8,0000.0,0008.76,0003.32,0002.50
2024-02-02 04:17:00,SystemResetWarning,0822.7,5.00,000.00,025.8,025.0,000.0,034.1,027.4,09.7,0000.0,0008.25,0003.31,0002.50
2024-02-02 04:18:00,SystemResetWarning,0822.7,5.00,000.00,025.8,024.9,000.0,034.1,027.4,09.6,0000.0,0008.26,0003.34,0002.50
2024-02-02 04:19:00,SystemResetWarning,0822.7,5.00,000.00,025.8,024.9,000.0,034.1,027.4,09.6,0000.0,0008.45,0003.39,0002.53
2024-02-02 04:20:00,SystemResetWarning,0822.7,5.00,000.00,025.8,024.9,000.0,034.1,027.4,09.5,0000.0,0007.64,0003.39,0002.57
2024-02-02 04:21:00,SystemResetWarning,0822.8,4.99,000.00,025.7,024.9,000.0,034.1,027.4,09.5,0000.0,0007.49,0003.41,0002.63
2024-02-02 04:22:00,SystemResetWarning,0822.8,4.98,000.00,025.7,024.9,000.0,034.1,027.4,09.5,0000.0,0007.60,0003.46,0002.71
2024-02-02 04:23:00,SystemResetWarning,0822.9,5.00,000.00,025.7,024.9,000.0,034.1,027.4,09.6,0000.0,0007.77,0003.50,0002.77
2024-02-02 04:24:00,SystemResetWarning,0822.8,5.00,000.00,025.7,024.9,000.0,034.1,027.3,09.6,0000.0,0008.04,0003.56,0002.83
2024-02-02 04:25:00,SystemResetWarning,0822.6,5.01,000.00,025.7,024.9,000.0,034.1,027.3,09.6,0000.0,0008.18,0003.59,0002.89
2024-02-02 04:26:00,SystemResetWarning,0822.6,5.00,000.00,025.7,024.9,000.0,034.1,027.3,09.6,0000.0,0008.98,0003.64,0002.94
2024-02-02 04:27:00,SystemResetWarning,0822.9,4.98,000.00,025.7,024.8,000.0,034.0,027.3,09.6,0000.0,0009.64,0003.69,0003.01
2024-02-02 04:28:00,SystemResetWarning,0822.9,5.01,000.00,025.7,024.8,000.0,034.0,027.3,09.6,0000.0,0010.59,0003.73,0003.09
2024-02-02 04:29:00,SystemResetWarning,0823.0,5.01,000.00,025.7,024.8,000.0,034.0,027.3,09.6,0000.0,0011.63,0003.73,0003.11
2024-02-02 04:30:00,SystemResetWarning,0822.9,4.99,000.00,025.7,024.8,000.0,034.0,027.3,09.6,0000.0,0012.27,0003.78,0003.13
2024-02-02 04:31:00,SystemResetWarning,0822.5,4.98,000.00,025.7,024.8,000.0,034.0,027.3,09.6,0000.0,0012.92,0003.81,0003.15
2024-02-02 04:32:00,SystemResetWarning,0822.5,5.00,000.00,025.7,024.8,000.0,034.0,027.3,09.6,0000.0,0012.85,0003.85,0003.18
2024-02-02 04:33:00,SystemResetWarning,0822.4,5.01,000.00,025.6,024.8,000.0,034.0,027.3,09.6,0000.0,0012.72,0003.86,0003.19
2024-02-02 04:34:00,SystemResetWarning,0822.4,4.99,000.00,025.6,024.8,000.0,034.0,027.3,09.6,0000.0,0012.63,0003.86,0003.20
2024-02-02 04:35:00,SystemResetWarning,0822.4,4.99,000.00,025.6,024.8,000.0,034.0,027.2,09.7,0000.0,0013.25,0003.88,0003.22
2024-02-02 04:36:00,SystemResetWarning,0822.4,5.01,000.00,025.6,024.8,000.0,034.0,027.2,09.7,0000.0,0014.51,0003.92,0003.22
2024-02-02 04:37:00,SystemResetWarning,0822.4,5.01,000.00,025.6,024.8,000.0,034.0,027.2,09.7,0000.0,0014.34,0003.91,0003.24
2024-02-02 04:38:00,SystemResetWarning,0822.4,4.98,000.00,025.6,024.8,000.0,034.0,027.2,09.7,0000.0,0014.84,0003.93,0003.26
2024-02-02 04:39:00,SystemResetWarning,0822.4,5.00,000.00,025.6,024.7,000.0,033.9,027.2,09.7,0000.0,0014.13,0003.97,0003.27
2024-02-02 04:40:00,SystemResetWarning,0822.4,5.00,000.00,025.6,024.7,000.0,033.9,027.2,09.7,0000.0,0013.96,0003.99,0003.28
2024-02-02 04:41:00,SystemResetWarning,0822.4,5.01,000.00,025.5,024.7,000.0,033.9,027.2,09.7,0000.0,0012.78,0003.96,0003.28
2024-02-02 04:42:00,SystemResetWarning,0822.4,5.00,000.00,025.5,024.7,000.0,033.9,027.2,09.7,0000.0,0013.38,0004.00,0003.29
2024-02-02 04:43:00,SystemResetWarning,0822.4,5.00,000.00,025.5,024.7,000.0,033.9,027.2,09.7,0000.0,0013.95,0003.99,0003.29
2024-02-02 04:44:00,SystemResetWarning,0822.4,4.99,000.00,025.5,024.7,000.0,033.9,027.2,09.7,0000.0,0014.24,0004.01,0003.32
2024-02-02 04:45:00,SystemResetWarning,0822.4,5.00,000.00,025.5,024.7,000.0,033.9,027.1,09.7,0000.0,0014.28,0004.05,0003.32
2024-02-02 04:46:00,SystemResetWarning,0822.4,5.01,000.00,025.5,024.7,000.0,033.9,027.1,09.7,0000.0,0013.73,0004.06,0003.33
2024-02-02 04:47:00,SystemResetWarning,0822.4,4.99,000.00,025.5,024.7,000.0,033.9,027.1,09.7,0000.0,0012.21,0004.04,0003.35
2024-02-02 04:48:00,SystemResetWarning,0822.4,4.98,000.00,025.5,024.7,000.0,033.9,027.1,09.7,0000.0,0011.90,0004.06,0003.37
2024-02-02 04:49:00,SystemResetWarning,0822.4,5.00,000.00,025.5,024.7,000.0,033.8,027.1,09.7,0000.0,0012.22,0004.06,0003.38
2024-02-02 04:50:00,SystemResetWarning,0822.3,5.00,000.00,025.5,024.7,000.0,033.8,027.1,09.7,0000.0,0012.09,0004.03,0003.39
2024-02-02 04:51:00,SystemResetWarning,0822.4,5.01,000.00,025.5,024.7,000.0,033.8,027.1,09.7,0000.0,0012.30,0004.05,0003.41
2024-02-02 04:52:00,SystemResetWarning,0822.3,4.99,000.00,025.5,024.7,000.0,033.8,027.1,09.8,0000.0,0013.03,0004.12,0003.44
2024-02-02 04:53:00,SystemResetWarning,0822.3,4.99,000.00,025.5,024.7,000.0,033.8,027.1,09.7,0000.0,0012.83,0004.07,0003.46
2024-02-02 04:54:00,SystemResetWarning,0822.3,4.99,000.00,025.5,024.6,000.0,033.8,027.1,09.7,0008.9,0012.32,0004.04,0003.46
2024-02-02 04:55:00,SystemResetWarning,0822.3,5.02,000.00,025.5,024.6,000.0,033.8,027.1,09.8,0011.3,0012.38,0004.05,0003.47
2024-02-02 04:56:00,SystemResetWarning,0822.3,5.01,000.00,025.4,024.6,000.0,033.8,027.1,09.7,0010.1,0012.70,0004.05,0003.48
2024-02-02 04:57:00,SystemResetWarning,0822.3,4.99,000.00,025.4,024.6,000.0,033.8,027.1,09.7,0000.0,0012.88,0004.08,0003.51
2024-02-02 04:58:00,SystemResetWarning,0822.3,4.99,000.00,025.4,024.6,000.0,033.8,027.1,09.7,0003.4,0012.90,0004.09,0003.52
2024-02-02 04:59:00,SystemResetWarning,0822.3,5.00,000.00,025.4,024.6,000.0,033.8,027.1,09.7,-002.9,0012.56,0004.11,0003.53
